Theta_e
348 348 348 347 345 345 343 341 340 340 340 341 339 339 337 338 339 339 338 341 342 345 348 349 349 351 349 347 346 346 349 348 348 348 347 345 344 345 344 343 342 342 342
348 345 345 344 343 343 341 339 338 339 338 338 338 339 339 339 339 340 338 338 342 345 346 349 350 350 348 346 342 343 346 347 347 347 346 345 344 344 343 342 344 342 342
345 345 342 341 340 341 341 340 340 339 337 338 337 338 339 340 341 342 342 339 339 343 345 347 350 350 348 344 339 341 345 346 346 346 346 345 344 343 344 343 342 342 342
342 342 337 338 338 339 337 336 336 335 336 336 336 338 339 341 342 343 342 341 343 344 346 346 348 348 347 345 343 344 346 346 345 345 345 345 344 343 343 343 343 343 342
340 338 337 340 341 337 335 336 336 337 336 337 336 338 339 340 342 341 342 344 347 347 347 345 346 345 344 343 343 345 345 345 344 344 344 345 345 345 343 343 343 343 341
338 339 338 340 341 337 337 337 338 338 338 339 336 336 340 340 341 342 343 344 346 348 349 350 350 345 344 345 345 344 344 345 344 343 344 344 344 344 343 343 343 342 342
339 340 340 340 341 340 341 341 340 338 338 339 336 336 338 341 342 342 344 344 344 347 348 348 347 345 344 341 343 344 344 342 343 344 343 342 343 344 341 342 343 342 341
344 340 337 341 341 340 343 342 340 338 339 340 336 336 332 335 339 342 343 343 345 345 345 345 345 345 345 344 344 342 343 342 342 344 343 342 343 343 343 342 342 341 341
348 347 346 345 345 343 342 343 341 342 338 338 340 338 330 327 335 338 341 341 343 342 343 344 344 344 345 344 343 341 341 342 341 342 341 342 343 343 343 343 341 340 339
348 349 350 347 346 345 347 345 343 343 342 338 336 338 339 338 329 327 335 337 339 340 342 341 341 342 343 343 342 341 338 338 340 342 342 342 343 342 343 342 339 339 338
351 350 352 349 348 347 348 346 343 341 342 341 338 338 335 335 335 329 327 331 333 337 339 339 340 340 342 342 342 340 335 334 336 337 339 341 343 342 342 342 339 339 337
348 351 351 350 350 348 347 346 345 343 343 343 342 339 333 331 332 331 330 331 329 335 335 337 337 337 339 339 338 335 331 331 330 331 334 338 340 342 342 341 340 338 338
342 346 349 349 347 348 349 347 345 344 345 342 341 337 340 339 337 335 333 331 329 333 333 335 337 338 338 339 339 333 333 329 327 326 329 331 335 337 338 340 340 339 339
343 349 347 348 348 348 348 347 345 344 345 342 338 339 336 336 338 337 334 331 327 327 330 331 335 337 339 337 337 329 337 328 325 323 325 327 330 332 334 335 336 335 336
343 346 346 346 348 348 348 348 346 346 345 343 341 336 336 338 339 338 337 334 328 322 324 328 329 333 335 339 337 338 338 329 326 322 323 323 326 327 328 328 330 330 331
343 344 345 347 348 349 349 349 348 348 347 343 337 336 336 339 338 337 336 334 332 328 322 330 332 330 333 335 335 337 339 329 324 322 323 321 321 322 324 324 325 327 327
343 343 345 346 348 349 349 349 348 346 343 337 339 339 340 340 337 336 334 333 332 330 325 328 327 331 332 334 329 331 333 338 333 320 320 321 318 319 320 321 322 324 324
342 342 344 345 348 348 349 347 345 343 340 336 336 339 338 336 338 337 334 335 333 332 330 328 327 327 326 329 327 326 330 334 336 322 319 317 316 317 318 318 318 319 319
342 342 344 345 347 347 346 346 344 341 336 337 340 339 338 337 336 334 335 334 332 331 330 328 325 327 326 327 325 325 328 329 329 322 317 316 316 316 317 317 317 316 315
342 343 345 346 347 346 345 344 342 336 336 340 340 340 338 337 336 336 334 334 333 330 329 329 326 324 323 327 324 323 323 326 325 327 321 321 320 317 316 317 317 316 314
342 344 345 346 347 345 342 341 335 335 339 339 338 336 337 334 326 330 334 334 333 330 328 326 322 323 322 321 323 322 322 323 324 327 326 326 325 326 324 318 321 318 312
342 344 344 345 344 341 310 316 330 340 339 337 335 335 335 323 322 312 314 319 328 330 325 326 324 322 322 323 325 325 320 320 319 326 325 324 329 323 324 326 316 313 308
340 342 344 344 343 334 306 308 314 338 336 336 336 335 333 331 325 329 313 311 313 312 319 327 327 326 324 328 328 325 326 326 321 322 324 320 325 323 326 318 310 307 306
340 341 339 334 330 315 302 303 309 337 336 335 335 335 334 332 330 326 330 330 327 322 326 329 332 332 331 329 329 328 329 329 325 324 332 319 320 320 323 320 307 307 305
334 334 328 328 328 319 300 303 320 335 333 332 333 333 333 331 309 306 327 325 323 321 310 310 311 308 305 309 320 326 320 323 320 320 324 321 319 319 321 322 321 307 304
325 326 324 329 317 319 299 302 321 330 329 327 329 328 308 321 300 301 327 325 320 317 320 318 320 312 314 315 309 325 326 323 320 317 326 325 323 320 320 327 324 328 326
Wind_Speed
8 8 7 7 8 8 8 7 7 7 9 10 9 9 10 9 9 6 5 7 11 12 12 12 12 12 10 8 8 8 10 11 12 12 12 12 12 14 15 15 15 15 14
8 8 8 10 9 9 8 8 7 7 8 8 9 9 10 9 9 8 7 7 11 13 13 13 14 12 10 9 7 9 10 10 11 12 12 11 12 14 17 15 16 16 16
9 11 9 9 9 8 9 7 8 7 7 8 9 7 8 10 9 9 9 7 7 12 14 12 12 12 12 13 11 13 9 10 11 12 11 12 12 14 16 17 17 16 15
10 10 6 7 9 8 8 7 7 7 7 7 6 5 7 7 7 8 8 6 7 7 7 9 11 13 14 15 14 14 9 11 12 12 12 12 13 13 14 16 16 15 14
10 8 8 8 6 8 8 8 7 7 6 7 6 6 6 6 7 6 8 7 8 7 5 7 10 13 14 14 15 15 11 11 12 13 13 13 14 13 11 13 14 13 14
12 8 10 9 8 9 9 7 9 7 6 7 5 5 6 6 6 7 7 7 8 9 8 8 7 8 13 15 15 14 14 12 14 16 14 14 14 14 12 12 12 13 13
11 11 8 8 11 11 11 9 8 7 7 6 4 6 7 8 8 7 7 7 8 8 7 7 5 5 6 11 13 14 17 14 14 15 15 14 14 15 13 13 12 12 11
13 10 10 10 12 10 12 10 10 6 7 7 4 4 4 5 6 7 6 6 7 5 6 7 7 8 8 6 8 12 16 15 14 13 15 14 15 16 15 13 13 13 11
16 16 14 13 13 12 10 11 11 11 6 6 9 4 3 5 2 3 6 6 6 6 6 7 7 8 8 7 6 9 12 11 13 11 14 15 16 16 14 12 13 10 9
16 16 15 15 13 10 11 10 9 9 8 8 5 8 4 1 4 4 3 4 4 5 5 5 5 7 7 6 8 7 6 9 12 10 12 17 17 17 15 13 11 9 9
15 17 17 15 13 11 11 10 11 12 10 8 8 5 8 5 3 5 7 5 5 4 4 5 5 5 6 6 6 6 10 9 10 10 9 15 15 15 15 13 15 13 15
10 14 15 14 13 11 11 10 11 12 10 9 8 6 6 5 8 7 7 5 4 3 3 3 5 4 5 5 5 2 6 7 7 7 7 14 14 13 14 15 18 18 18
9 12 14 13 11 12 10 9 11 11 11 11 11 8 5 3 3 5 6 5 4 2 2 4 3 3 3 4 4 5 7 6 7 8 8 8 11 12 14 16 19 20 21
11 11 13 12 12 13 9 10 9 9 10 10 9 7 5 5 6 6 6 5 4 4 3 4 1 2 2 4 2 4 6 9 8 9 8 8 8 11 11 13 19 22 20
9 11 13 13 13 10 10 11 8 10 9 10 10 7 6 7 6 5 5 5 5 4 4 4 3 3 3 3 0 5 6 9 8 8 9 9 10 11 10 12 16 17 19
12 12 14 12 11 11 12 12 10 10 10 8 5 8 8 7 7 5 5 4 4 4 4 0 2 1 2 2 2 4 4 5 8 10 10 9 9 8 11 11 14 18 16
12 13 13 13 12 13 13 12 10 10 11 9 9 11 10 8 7 6 5 5 4 4 5 4 1 1 2 3 3 2 3 5 6 6 10 10 9 12 15 16 17 17 14
13 12 12 13 13 14 13 13 12 11 12 10 10 11 10 7 8 7 6 6 5 5 3 5 3 2 2 4 5 4 4 4 5 6 9 10 10 13 16 18 16 16 17
14 13 13 14 15 14 15 13 13 12 9 10 12 11 11 10 9 7 7 6 5 5 5 3 4 2 2 4 4 4 6 7 5 9 8 6 11 12 15 15 17 18 16
14 14 14 14 14 15 14 13 12 9 8 10 9 10 9 10 10 9 8 8 6 6 6 5 4 3 2 4 3 3 4 4 3 5 8 6 6 9 13 14 16 16 13
13 14 14 14 14 13 10 13 10 9 11 10 9 8 8 9 6 7 6 8 8 7 7 6 6 4 4 4 7 3 4 4 3 2 4 5 5 4 6 11 12 16 13
14 15 15 15 15 10 13 14 12 12 10 10 9 8 7 7 6 6 6 6 9 10 7 7 7 9 7 6 6 8 8 6 3 1 3 3 4 4 5 6 10 12 12
15 15 15 15 14 11 14 13 11 9 9 8 8 7 7 5 7 8 6 7 8 6 7 7 10 11 10 11 10 10 10 10 4 2 5 2 1 4 3 4 11 11 11
15 13 13 11 12 7 11 12 11 9 7 7 7 8 8 9 8 8 8 8 7 6 6 6 8 9 10 9 10 8 8 8 8 3 4 3 1 2 3 4 6 9 9
13 12 11 11 13 9 10 13 12 9 8 7 7 7 7 8 9 7 7 7 6 4 5 3 3 7 11 11 10 9 6 9 5 3 2 4 2 3 2 3 5 7 8
13 11 11 11 11 12 8 11 10 7 8 6 6 6 4 5 10 10 7 8 7 5 7 5 5 6 10 10 12 6 8 9 7 3 4 5 6 4 3 3 4 7 8
Wind_Direction
207 199 215 215 215 212 211 214 219 221 229 236 235 236 246 247 250 251 257 227 249 249 251 245 241 233 227 228 229 240 227 213 216 216 215 214 209 206 208 199 198 204 204
209 200 210 217 222 218 214 220 219 219 230 238 235 239 248 249 248 250 252 247 233 246 246 238 231 225 221 216 229 254 229 211 213 215 216 213 208 204 215 217 221 210 206
215 216 217 220 232 219 215 216 223 227 234 235 239 242 248 247 247 247 251 249 245 233 247 255 227 213 209 211 241 250 233 213 210 215 212 211 208 209 215 220 224 220 217
224 237 228 219 235 234 213 206 217 222 230 233 232 237 239 244 251 249 246 243 241 246 220 227 237 208 200 213 238 248 238 214 212 212 207 205 206 210 218 225 222 216 213
211 224 241 246 212 232 225 204 206 221 222 233 228 233 238 242 242 248 247 240 242 249 251 242 225 208 208 220 238 246 243 218 212 214 207 201 204 204 211 218 220 209 206
195 201 232 232 211 229 229 203 203 203 229 237 227 235 242 242 246 243 244 240 238 241 245 251 231 224 223 233 235 243 241 234 215 218 207 200 202 201 207 218 224 209 209
202 195 205 213 209 228 226 202 198 203 215 218 207 226 237 228 231 239 239 241 242 239 240 238 249 251 238 229 243 233 236 233 227 215 205 198 198 200 212 218 221 214 212
208 200 200 205 222 215 215 199 197 190 219 195 216 241 241 196 215 228 232 236 241 238 232 234 253 254 257 252 238 221 231 235 232 217 206 197 195 200 210 213 222 220 216
205 204 202 212 210 215 211 198 199 206 209 192 218 256 180 227 177 176 213 233 243 244 248 245 246 243 241 245 240 234 235 231 230 222 213 193 197 200 207 208 215 205 222
205 207 209 211 210 209 212 196 197 205 203 191 200 234 270 279 225 208 201 219 229 235 230 225 226 230 232 237 240 251 236 231 220 219 209 199 202 199 203 203 185 172 146
203 205 210 203 208 209 215 195 192 202 203 198 201 174 222 231 228 252 263 208 214 213 222 223 232 232 227 240 237 236 223 227 212 210 210 203 200 199 201 189 169 164 131
204 211 206 205 204 207 207 193 202 203 201 201 200 194 173 190 209 220 243 230 228 194 229 232 234 238 234 234 238 260 211 204 204 203 200 201 192 190 193 179 173 165 147
200 209 193 200 195 206 198 190 198 200 195 202 193 195 184 190 173 216 237 240 251 178 219 227 239 237 225 228 231 222 202 203 202 207 197 183 184 184 185 175 176 166 157
209 191 195 193 193 194 177 191 198 199 191 196 186 190 178 205 216 217 230 222 197 221 212 266 118 219 225 231 252 210 218 197 202 203 190 177 177 178 181 179 183 169 153
201 186 188 187 194 167 178 185 191 187 186 191 195 181 187 207 212 208 205 217 242 235 222 140 204 64 266 234 349 236 228 160 182 185 176 172 175 184 175 178 174 162 150
199 184 183 183 176 167 178 178 178 175 186 189 170 177 189 196 194 197 204 202 211 255 242 117 134 265 243 152 51 268 223 161 168 171 171 167 181 166 172 155 132 141 143
195 192 182 181 171 169 175 173 179 177 181 170 178 192 190 187 194 192 194 190 198 220 230 124 170 208 181 131 68 98 165 170 145 141 147 156 148 143 143 142 138 140 144
195 187 184 181 169 173 168 176 177 178 180 171 179 188 189 186 190 188 193 192 204 201 225 166 161 120 69 110 86 79 100 128 132 129 147 137 135 140 138 147 144 143 148
186 180 179 177 175 170 173 180 180 178 172 175 181 188 189 188 189 189 198 189 195 188 192 179 142 111 101 116 87 59 91 96 85 102 93 113 133 140 146 155 152 149 155
179 176 178 174 172 172 175 175 172 160 159 179 178 192 189 195 194 189 193 195 193 184 182 179 150 139 116 133 122 121 97 82 82 88 77 106 126 129 137 144 149 147 158
175 173 166 167 170 169 171 165 150 152 173 176 180 185 194 200 184 197 195 193 189 188 186 179 166 157 155 153 167 147 128 108 62 122 110 111 129 132 150 146 147 149 163
166 166 163 165 163 170 145 151 155 173 176 178 177 179 182 173 179 182 209 212 196 179 187 182 181 183 171 169 169 159 154 146 124 48 96 82 134 126 146 151 148 152 155
157 159 163 165 161 153 139 138 151 163 171 176 176 182 180 179 177 180 183 168 174 171 188 186 186 191 178 180 171 167 177 170 119 135 128 88 69 100 105 117 147 153 165
153 151 151 141 134 114 132 140 150 155 162 169 182 188 183 173 173 170 178 175 169 175 196 213 202 195 183 168 175 178 167 120 114 88 149 101 52 78 103 108 145 167 177
136 139 132 125 129 137 142 143 157 156 152 162 170 173 173 168 159 171 178 174 160 149 52 304 231 146 142 154 157 154 173 164 136 130 236 112 118 106 121 153 174 186 184
124 119 113 132 128 132 139 131 146 151 155 152 159 140 86 181 161 175 185 170 163 152 151 139 125 102 147 148 152 177 181 175 159 148 190 162 162 143 167 189 197 188 200